User: anonymous   Login
Location: La Oliva
(42.2466°N, 2.9955°E)
Time: 13:07:04
(UTC+00:00)
Language:

Hubble Space Telescope - Orbit

View from above orbital plane
View from above orbital plane
View from above satellite
View from above satellite

Ground track
Ground track

The orbit data is extracted from the following two-line orbital elements,

1 20580U 90037B   21173.94713341  .00000510  00000-0  19852-4 0  9995
2 20580  28.4710  28.7285 0002825 120.9902  24.2223 15.09664797511872
Epoch (UTC): 22 June 2021 22:43:52
Eccentricity: 0.0002825
inclination: 28.4710°
perigee height: 535 km
apogee height: 539 km
right ascension of ascending node: 28.7285°
argument of perigee: 120.9902°
revolutions per day: 15.09664797
mean anomaly at epoch: 24.2223°
orbit number at epoch: 51187

The dashed part of the orbit path shows where the satellite is in the earth's shadow,  

DLR